Lid_Strength_Index
3 2 2 2 2 2 2 2 2 2 3 1 1 0 -0 0 2 3 1 -1 3 5 4 4 4 6 6 6 9 6 7 7 8 11 11 12 13 12 12 11 12 14 15 15 14 16 17 7 7 11 9 6 5 5
3 2 2 2 2 2 2 2 2 2 2 2 2 0 -0 -0 2 3 3 0 1 4 4 2 2 2 3 3 5 5 7 7 7 10 10 9 12 10 11 15 9 14 11 14 13 13 8 6 7 5 4 5 5 5
2 2 2 2 2 2 2 2 2 2 2 2 1 1 0 -0 1 2 2 2 2 4 4 4 5 1 1 1 1 7 5 5 6 4 8 8 11 9 13 12 10 9 7 11 10 8 8 7 5 5 4 5 4 4
2 2 2 2 2 2 2 2 2 2 2 2 1 1 0 -0 1 2 3 2 3 6 8 6 1 3 1 1 2 2 3 4 4 6 9 9 10 7 10 9 9 8 7 8 9 7 6 6 6 5 4 4 4 4
2 2 2 2 2 2 2 1 2 2 2 2 1 1 0 -0 1 2 2 2 2 5 9 6 3 2 1 2 3 3 4 5 7 9 10 11 8 8 7 8 9 7 8 10 11 7 7 7 5 4 4 4 5 5
2 2 3 2 2 2 2 2 2 2 2 2 1 1 0 0 2 3 6 3 2 4 6 9 4 3 3 2 3 4 4 6 7 9 9 7 5 7 10 10 7 6 5 5 7 5 5 4 4 4 5 5 5 5
2 2 3 3 2 2 2 2 2 2 2 2 1 1 0 1 2 5 6 3 2 2 7 8 8 4 2 3 3 4 4 6 8 9 8 7 7 6 9 11 7 5 4 4 4 4 5 5 6 5 5 5 5 5
2 2 2 3 2 2 2 2 2 2 2 2 1 1 2 3 3 5 3 3 3 5 5 9 9 6 2 6 7 4 6 6 7 7 6 7 6 7 10 8 6 5 5 4 4 5 5 5 5 6 6 6 8 9
2 2 2 2 2 2 2 2 2 2 2 2 2 2 3 4 5 4 3 3 3 5 8 9 10 11 4 5 5 6 6 10 6 9 8 7 8 11 8 7 6 5 5 6 5 6 6 6 7 7 7 8 10 11
2 2 2 2 2 2 2 2 2 2 2 2 3 5 8 5 2 3 5 8 7 7 7 8 6 9 6 6 7 8 7 10 11 8 6 9 9 6 5 5 4 5 5 5 7 8 8 8 9 8 9 10 11 11
2 2 2 2 2 2 2 2 2 2 2 4 6 8 4 2 5 6 9 9 8 9 7 7 6 8 4 8 9 7 9 8 13 10 10 11 11 7 5 4 5 4 5 5 6 6 6 7 9 10 11 11 11 12
2 2 2 2 2 2 2 2 2 2 4 4 4 4 4 7 8 10 10 8 9 10 6 7 6 6 6 5 8 7 10 9 13 7 10 12 10 5 5 6 5 5 5 6 6 7 8 8 9 10 11 11 11 12
2 2 2 2 2 2 2 2 2 2 3 3 4 7 8 8 11 11 12 10 10 6 6 6 8 5 5 6 8 8 11 11 7 10 11 10 6 5 5 6 6 5 5 5 7 7 8 9 10 10 11 10 11 12
2 2 2 2 2 2 2 2 2 3 3 6 8 11 10 10 9 8 8 9 5 5 5 5 7 7 6 8 8 11 8 8 12 12 14 8 6 6 6 6 6 6 5 7 7 8 9 10 11 10 10 10 11 12
2 2 2 2 2 2 2 1 2 2 5 7 8 11 9 6 5 5 5 6 4 4 5 7 7 7 8 10 9 9 11 12 11 13 10 6 5 6 7 7 6 6 6 7 7 8 8 10 11 11 10 11 11 12
1 1 1 1 0 1 1 1 2 3 5 7 8 9 6 7 6 5 5 6 4 4 5 5 8 10 10 9 11 11 12 12 11 8 6 5 6 6 7 6 6 6 6 7 6 7 7 8 10 11 11 11 11 12
1 1 0 -0 0 0 1 3 3 6 7 8 8 5 6 6 7 7 5 5 3 5 8 7 11 11 8 11 11 9 11 9 6 5 4 4 6 6 6 6 6 6 6 6 7 7 7 7 9 11 12 11 11 12
3 0 1 0 -0 2 3 3 5 7 8 7 7 5 4 4 6 6 5 3 4 5 6 8 6 10 11 12 11 8 6 5 4 4 5 5 6 6 6 7 6 6 6 6 7 7 6 7 8 9 10 11 11 12
2 1 1 1 2 4 7 6 5 9 7 5 4 4 5 4 3 3 3 3 3 3 5 6 8 9 9 7 7 6 6 5 5 5 4 4 5 6 7 6 6 7 7 7 7 7 6 6 7 7 7 8 9 11
2 2 1 2 2 6 9 8 6 7 7 5 4 5 5 5 3 4 4 4 4 5 7 8 8 6 6 5 4 4 5 4 4 6 5 5 6 6 6 7 7 6 6 6 7 8 7 7 7 7 7 8 8 9
2 1 2 2 4 5 6 7 7 6 5 6 4 5 5 4 5 5 5 4 6 7 7 6 5 4 4 4 3 3 3 4 5 5 6 6 6 6 7 7 6 7 7 7 8 8 8 8 7 7 7 8 8 8
2 2 3 3 6 6 7 6 6 5 5 6 5 5 6 6 6 6 4 6 7 5 5 5 5 4 4 4 4 4 3 4 4 6 7 7 7 7 7 7 7 7 7 7 7 8 8 7 8 7 7 8 8 8
2 3 4 5 8 9 8 4 7 6 8 7 6 7 7 7 5 3 7 6 5 3 3 4 4 3 4 3 3 4 3 4 5 6 6 6 6 6 7 7 7 7 8 7 7 7 7 10 8 8 8 7 8 8
2 5 7 8 7 9 6 7 6 7 7 8 8 9 7 7 5 7 8 6 4 3 3 3 4 4 4 4 4 4 4 4 5 5 6 6 7 7 7 7 6 6 6 7 7 7 7 7 9 8 8 8 8 8
8 8 8 9 6 8 9 9 8 9 10 8 9 8 7 6 8 9 8 6 5 4 3 3 4 4 5 4 5 4 3 4 5 6 6 6 7 7 7 7 7 7 6 7 7 8 8 8 8 8 8 9 9 8
10 8 9 8 7 8 8 9 9 9 8 9 8 6 6 8 10 10 8 6 5 4 4 4 4 5 5 4 5 5 4 4 4 6 6 6 7 8 8 8 8 8 6 6 7 8 8 8 8 8 8 9 11 9
10 9 7 4 5 6 7 6 6 7 9 9 8 8 9 12 10 9 5 4 5 4 3 3 3 4 4 5 4 3 4 3 4 5 5 5 6 6 6 7 8 7 6 6 7 7 8 8 8 9 9 8 8 9
7 6 8 7 7 6 8 8 8 9 8 7 7 10 10 10 10 7 6 4 3 3 3 3 2 3 3 3 4 4 4 4 4 5 5 6 6 5 6 7 8 12 8 8 8 8 8 9 9 9 9 9 9 8
7 5 6 8 8 8 8 8 8 6 5 5 8 9 8 7 6 6 5 4 4 4 4 4 4 3 3 3 3 4 4 5 6 8 8 8 8 8 7 8 8 7 8 10 14 12 9 9 9 9 8 9 9 8
7 5 7 8 9 9 7 5 5 4 4 4 5 7 6 7 8 7 6 6 6 5 6 5 4 5 5 5 6 5 4 3 3 4 7 8 7 7 7 7 7 7 7 8 8 9 14 11 10 9 9 9 10 9
5 6 7 7 8 6 5 4 4 4 5 6 6 7 9 9 9 9 9 9 8 7 6 6 5 4 5 6 6 7 7 5 4 4 4 5 6 6 6 6 7 7 7 8 8 8 8 9 9 9 10 10 11 11
7 8 8 9 8 6 5 6 7 8 8 9 9 8 8 9 10 10 10 10 8 7 8 6 5 5 4 4 5 5 8 4 4 5 5 6 6 6 6 7 7 7 8 8 9 9 9 10 10 10 11 11 11 12
8 8 8 9 9 9 8 8 9 10 9 10 10 9 9 9 12 10 8 8 9 8 7 7 6 5 5 6 8 9 10 10 12 12 12 12 12 9 7 7 7 8 8 9 9 10 11 11 12 12 12 12 13 13